This demonstration page uses our WeatherBlox Daily Observations layout. Learn more.

Left ArrowRight Arrow

Hourly Observations for June 29, 2017

Temp ( °F °C ) Dew Point ( °F °C ) Humidity (%) Winds ( mph kmh ) Pressure ( in mb ) Visibility ( mi km ) Precip ( " mm )
12:53 am 00:53 Mostly Clear 59 15 47 8.3 64 64 NW 12 19 29.87 1012 10 16 0.00 0.03
1:53 am 01:53 Mostly Cloudy 61 16.1 44 6.7 54 54 WNW 10 17 29.86 1011 10 16 0.00 0.00
2:53 am 02:53 Mostly Clear 58 14.4 45 7.2 62 62 NW 10 17 29.86 1011 10 16 0.00 0.00
3:53 am 03:53 Clear 56 13.3 46 7.8 70 70 NW 10 17 29.89 1012 10 16 0.00 0.00
4:53 am 04:53 Mostly Clear 53 11.7 46 7.8 77 77 VRB 3 6 29.92 1013 10 16 0.00 0.00
5:53 am 05:53 Cloudy 54 12.2 48 8.9 80 80 W 5 7 29.95 1014 10 16 0.00 0.00
6:42 am 06:42 Cloudy 56 13.3 48 8.9 75 75 WNW 10 17 29.97 1015 10 16 0.00 0.00
6:53 am 06:53 Mostly Cloudy 57 13.9 49 9.4 74 74 WNW 8 13 29.97 1015 10 16 0.00 0.00
7:36 am 07:36 Cloudy 57 14 48 9 72 72 W 9 15 30.00 1016 10 16 0.00 0.00
7:53 am 07:53 Mostly Cloudy 57 13.9 49 9.4 74 74 W 13 20 29.99 1016 10 16 0.00 0.00
8:53 am 08:53 Cloudy 60 15.6 49 9.4 67 67 W 12 19 30.00 1016 10 16 0.00 0.00
9:25 am 09:25 Cloudy 60 15.6 49 9.4 67 67 WNW 14 22 30.00 1016 10 16 0.00 0.00
9:53 am 09:53 Cloudy 62 16.7 49 9.4 62 62 NW 10 17 30.02 1017 10 16 0.00 0.00
10:41 am 10:41 Mostly Cloudy 65 18.3 49 9.4 56 56 NNW 15 24 29.97 1015 10 16 0.00 0.00
10:53 am 10:53 Mostly Cloudy 65 18.3 49 9.4 56 56 NW 17 28 30.03 1017 10 16 0.00 0.00
11:53 am 11:53 Cloudy 64 17.8 50 10 60 60 N 16 26 30.05 1018 10 16 0.00 0.03
12:53 pm 12:53 Mostly Cloudy 66 18.9 51 10.6 59 59 Calm 30.06 1018 10 16 0.00 0.03
1:02 pm 13:02 Cloudy with Heavy Rain 57 14 52 11 82 82 NNW 13 20 30.03 1017 2 3 0.00 0.00
1:13 pm 13:13 Cloudy with Light Rain 58 14.4 54 12.2 87 87 NNW 5 7 30.03 1017 3 5 0.14 3.56
1:53 pm 13:53 Cloudy 62 16.7 55 12.8 78 78 W 3 6 30.08 1019 10 16 0.14 3.56
2:53 pm 14:53 Cloudy 68 20 47 8.3 47 47 NNW 12 19 30.06 1018 10 16 0.00 0.00
3:53 pm 15:53 Partly Cloudy 71 21.7 43 6.1 36 36 NNW 13 20 30.06 1018 10 16 0.00 0.00
4:53 pm 16:53 Mostly Cloudy 70 21.1 43 6.1 38 38 NNW 12 19 30.06 1018 10 16 0.00 0.00
5:53 pm 17:53 Mostly Sunny 74 23.3 40 4.4 29 29 NNW 17 28 30.05 1018 10 16 0.00 0.00
6:53 pm 18:53 Partly Cloudy 72 22.2 38 3.3 29 29 NW 18 30 30.05 1018 10 16 0.00 0.00
7:53 pm 19:53 Sunny 70 21.1 37 2.8 30 30 NNW 15 24 30.06 1018 10 16 0.00 0.00
8:53 pm 20:53 Sunny 66 18.9 36 2.2 33 33 NNW 8 13 30.08 1019 10 16 0.00 0.00
9:53 pm 21:53 Clear 61 16.1 37 2.8 41 41 NE 8 13 30.10 1019 10 16 0.00 0.00
10:53 pm 22:53 Clear 56 13.3 38 3.3 51 51 ESE 7 11 30.12 1020 10 16 0.00 0.00
11:53 pm 23:53 Clear 49 9.4 40 4.4 71 71 SSE 7 11 30.14 1021 10 16 0.00 0.00

Powered by AerisWeather